Wetbulb
60.40 56.33 56.61 52.45 43.97 42.63 37.66 41.35 44.82 45.71 47.40 49.41 51.81 55.63 56.06 57.05 55.88 51.13 66.73 70.91 72.96 73.57 75.55 76.47 77.01 77.14 77.14 76.79 76.66 76.63 76.50 76.53 76.64 76.49 76.34 76.24 76.36 76.41 76.38 76.32 76.25 75.74 74.80 73.67 72.68 71.82 70.67 69.88 69.86
56.32 56.55 54.60 48.37 40.88 37.87 40.63 44.90 43.91 45.61 49.58 50.09 48.75 53.44 55.11 54.78 64.74 65.59 66.66 73.06 73.20 74.02 74.80 75.32 77.06 76.89 76.84 76.61 76.32 76.29 76.32 76.35 76.31 76.26 76.19 76.16 76.33 76.35 76.20 76.15 75.91 74.88 73.98 73.11 72.22 70.78 69.38 68.90 68.64
52.14 56.62 49.79 44.03 38.59 38.32 41.12 47.48 48.31 48.79 52.36 48.86 49.03 55.15 56.05 55.79 61.66 66.23 68.97 73.39 73.68 73.96 74.96 74.75 76.95 76.71 76.64 76.28 76.07 75.88 76.01 76.07 76.02 76.08 76.06 76.05 76.12 75.84 75.79 75.63 75.44 74.07 73.27 72.54 71.27 69.86 69.51 69.13 68.80
50.40 51.06 48.29 42.30 39.74 44.72 45.00 48.14 51.38 50.86 51.84 51.32 52.89 51.28 54.06 57.82 57.62 67.11 72.90 73.86 73.27 73.80 74.45 76.24 76.85 76.68 76.38 76.08 75.95 75.64 75.82 75.77 75.70 75.80 75.88 75.67 75.57 75.28 75.26 75.12 74.79 74.05 72.65 71.53 70.34 69.56 69.72 69.41 68.87
50.42 47.37 40.57 38.83 41.32 46.09 49.02 50.47 51.48 50.61 50.40 50.01 51.72 50.56 51.90 56.75 69.21 71.18 72.81 73.34 72.29 72.85 74.27 76.07 76.75 76.52 76.43 76.11 75.76 75.52 75.57 75.52 75.60 75.70 75.60 75.52 75.26 74.95 74.83 74.65 74.07 73.71 72.86 71.35 69.99 69.77 70.31 69.72 69.56
45.05 44.98 37.33 36.33 41.84 47.52 48.87 50.22 51.20 50.86 50.16 51.69 50.72 50.86 51.17 55.71 67.41 69.84 72.18 71.83 72.93 72.77 74.16 74.96 76.26 76.29 75.79 75.93 75.65 75.29 75.16 75.34 75.39 75.36 75.19 74.96 74.77 74.65 74.61 74.25 73.91 73.52 72.78 71.86 70.62 70.54 69.98 69.12 68.70
43.72 40.62 36.80 38.32 41.75 44.64 48.05 50.37 49.11 49.10 49.39 51.24 51.79 50.28 51.93 54.11 56.50 69.08 70.73 71.13 72.97 73.48 73.65 74.07 74.66 75.58 75.97 75.71 75.40 75.00 74.90 74.90 74.90 74.84 74.77 74.60 74.63 74.52 74.45 74.01 74.00 73.51 72.80 72.13 71.61 70.62 70.02 69.26 69.10
43.96 41.54 36.59 38.40 40.81 42.34 48.28 49.25 48.65 49.17 50.06 53.31 54.76 49.45 48.76 54.06 56.94 66.59 67.99 69.71 71.43 73.14 72.93 73.30 73.76 74.55 74.26 74.49 75.54 75.17 74.82 74.74 74.77 74.75 74.75 74.24 74.28 74.25 74.20 73.16 73.34 73.31 72.72 72.25 71.54 70.70 70.26 69.66 69.45
45.69 37.23 35.04 38.30 40.92 43.37 47.11 45.09 47.21 51.00 49.61 50.44 51.47 50.97 53.65 56.50 64.04 66.33 65.44 68.11 70.28 72.58 72.36 72.75 72.90 73.27 73.89 73.79 74.66 75.09 74.85 74.82 74.60 74.76 74.63 73.40 72.43 72.63 72.92 72.46 72.89 73.11 72.67 72.05 71.61 71.24 70.53 70.16 70.01
41.02 35.00 38.83 42.85 44.41 43.95 44.84 44.53 44.58 45.89 46.77 47.93 49.22 52.66 55.34 57.72 64.36 65.44 64.74 65.85 68.07 70.22 71.42 72.19 72.36 72.53 72.93 73.62 73.59 73.49 73.38 73.69 73.17 73.10 73.17 72.00 70.89 70.93 71.32 71.95 72.75 73.20 72.76 72.25 71.88 71.39 71.00 70.63 67.25
38.68 36.51 40.42 42.94 45.59 45.98 44.29 43.93 47.42 45.05 44.07 46.17 47.50 50.11 52.99 54.53 55.55 64.77 65.34 66.37 67.21 69.51 71.03 71.74 72.02 72.40 72.28 72.64 72.89 73.06 73.18 73.23 72.71 72.53 71.68 70.33 69.87 70.54 70.57 69.31 70.97 70.27 71.80 69.31 70.73 69.83 69.22 68.00 66.73
37.60 41.59 42.92 43.09 44.82 45.11 44.46 46.16 45.54 46.22 46.24 49.10 49.61 50.26 50.83 52.30 53.43 61.08 65.43 66.14 66.92 68.67 70.47 71.66 71.73 72.03 71.61 72.27 72.35 71.89 72.20 72.45 72.20 71.70 71.72 69.08 68.27 67.95 68.27 67.80 67.35 67.60 67.50 67.46 66.91 66.96 67.28 67.19 67.16
37.01 39.91 41.70 43.27 41.97 41.51 43.82 42.96 43.96 45.08 47.92 49.24 49.63 50.37 49.61 51.83 52.52 55.11 62.20 66.65 67.84 68.03 69.75 71.07 71.56 71.34 71.72 71.20 72.55 71.71 71.32 71.61 71.27 71.37 71.30 70.12 68.18 67.46 67.12 66.50 65.49 65.67 66.05 66.12 65.88 65.91 65.96 65.85 65.91
39.70 39.58 40.54 41.45 41.94 41.87 41.54 42.84 41.87 44.16 47.70 47.95 48.10 47.94 48.67 51.54 52.62 52.22 53.85 61.26 67.57 68.46 68.55 70.85 71.02 71.10 71.70 71.16 71.30 71.35 71.48 71.59 71.49 71.34 71.23 70.52 69.05 67.12 66.27 65.69 65.07 64.79 65.43 65.85 66.16 65.80 65.81 65.38 65.44
40.09 36.69 39.22 39.66 40.65 41.36 42.23 40.19 40.84 44.71 45.87 45.89 46.93 47.70 49.43 53.05 53.56 53.28 53.71 57.68 67.36 68.26 68.73 69.72 70.50 70.83 71.12 71.06 71.02 70.95 71.24 71.86 71.07 71.01 71.16 70.87 69.19 66.97 65.99 65.88 65.05 65.19 65.99 66.43 66.49 66.22 66.32 65.68 65.61
35.64 34.55 30.74 36.90 39.42 42.06 39.76 36.92 42.52 44.48 43.83 44.28 46.13 46.67 47.20 47.54 53.26 53.19 53.37 54.88 63.98 67.11 67.24 68.64 70.30 70.43 70.62 70.70 70.47 70.57 70.81 70.99 70.85 71.17 71.09 71.05 70.39 68.28 66.23 65.26 65.63 66.42 66.38 66.47 66.51 66.27 65.80 65.98 66.06
31.54 27.01 28.61 34.45 38.12 38.59 37.32 35.66 41.77 44.49 42.88 42.57 43.56 44.86 46.00 47.47 48.35 52.80 53.21 53.21 57.45 63.21 66.84 67.84 68.87 69.20 69.63 70.24 70.21 70.12 70.25 70.68 70.52 69.73 69.49 69.97 70.36 69.77 67.51 66.44 65.23 66.60 66.93 67.05 66.95 67.04 67.11 66.71 66.23
28.54 28.69 31.21 32.07 37.68 37.47 36.76 36.87 40.27 42.44 42.34 42.48 41.82 42.67 44.23 45.66 47.58 49.72 53.41 53.46 54.89 60.22 64.29 67.00 68.20 68.39 68.46 68.67 68.31 67.79 68.36 69.17 69.63 69.24 68.66 68.81 69.23 69.77 67.49 66.30 65.97 67.17 66.47 66.54 67.21 67.43 66.91 66.37 65.66
34.35 32.20 31.91 35.67 40.16 36.03 36.27 37.67 39.02 41.05 40.70 40.63 41.97 41.52 41.97 43.53 47.50 48.04 49.90 53.04 55.99 59.11 61.65 64.08 65.94 66.43 66.92 66.95 67.19 66.47 66.22 67.28 67.55 68.32 68.73 68.39 68.22 69.14 68.93 67.72 66.07 66.28 66.68 67.33 67.76 67.48 67.19 66.46 66.42
35.25 32.83 32.50 36.05 39.57 36.84 36.05 36.29 38.90 39.25 40.23 41.01 41.35 42.20 41.64 42.08 44.31 47.11 51.12 53.73 55.79 58.72 60.35 62.35 65.59 66.09 66.36 67.65 68.03 67.73 67.15 66.65 67.10 67.84 68.49 68.88 68.56 68.67 68.92 68.58 68.37 67.90 67.17 67.87 67.70 67.13 65.75 65.84 66.14
34.53 32.45 33.12 33.84 37.91 37.58 35.69 34.80 36.31 39.37 40.93 42.94 43.27 42.96 42.72 42.99 43.14 44.88 50.56 53.23 53.96 55.72 57.83 61.65 64.66 66.50 66.97 66.94 65.81 65.22 65.67 66.21 65.63 66.94 67.57 68.42 69.10 69.54 69.10 68.89 69.28 69.20 69.71 68.32 67.60 67.04 65.63 65.50 65.36
32.07 38.15 38.27 37.33 33.19 28.22 35.87 28.25 35.37 36.85 38.15 40.48 41.85 41.16 41.55 42.40 43.67 44.67 46.73 52.27 53.28 54.04 55.18 59.43 62.65 63.88 65.41 66.64 65.88 65.30 63.91 63.09 65.69 66.44 67.75 67.62 68.15 68.67 69.88 69.07 68.14 68.88 68.61 67.77 67.82 68.29 67.64 65.42 65.21
36.84 41.31 38.57 36.27 32.05 28.06 30.56 26.31 32.78 35.05 35.02 37.38 40.69 42.49 42.10 43.46 44.10 45.20 45.42 50.05 53.61 54.10 53.63 57.04 59.70 59.48 60.63 63.65 65.39 64.79 62.33 63.17 63.44 64.50 64.62 65.20 66.31 67.10 68.02 69.27 68.97 68.67 68.88 68.70 68.25 66.92 66.63 65.90 65.71
42.83 38.33 36.19 31.49 28.75 24.41 31.96 29.73 32.43 35.94 35.39 37.15 39.85 42.09 44.87 44.67 44.59 44.08 46.26 47.27 52.02 52.56 52.43 53.97 55.17 54.62 55.51 56.72 58.00 59.98 61.11 60.93 61.21 61.79 62.66 63.34 64.52 65.47 66.56 66.99 67.01 67.24 66.81 66.22 65.81 66.80 65.84 63.61 63.79
38.97 33.25 26.86 23.58 22.22 25.51 32.01 28.05 33.51 37.40 39.66 39.16 40.04 42.57 42.93 42.93 43.19 44.26 42.75 44.19 49.46 51.47 52.19 52.23 52.06 51.92 52.87 54.58 56.40 57.27 57.54 57.43 58.02 58.98 59.59 60.67 62.33 63.93 65.18 66.43 66.56 67.15 67.46 66.70 65.81 64.70 64.02 64.63 64.06
35.18 33.82 25.98 20.35 21.74 25.54 32.17 28.21 31.85 39.71 42.59 43.22 43.64 42.58 43.26 43.15 42.68 43.52 44.04 45.41 49.40 52.41 52.83 53.24 51.36 51.66 52.73 53.52 53.76 54.17 54.81 55.35 55.96 56.37 57.22 58.32 60.12 61.65 63.33 63.79 65.11 66.72 67.10 67.19 67.93 68.29 67.08 65.76 65.59
34.61 30.76 34.21 25.27 29.61 27.52 27.47 31.26 37.14 39.99 41.56 43.01 42.55 43.33 42.55 42.89 43.74 43.22 44.88 45.10 49.00 51.07 51.95 52.38 50.75 51.21 52.53 53.28 53.03 53.68 54.24 54.51 54.41 55.48 56.70 56.68 57.68 59.48 62.11 63.57 64.30 65.12 66.11 67.23 67.26 67.19 66.74 66.13 66.25
36.61 38.70 26.27 31.04 23.60 23.43 26.01 27.10 28.71 35.00 38.21 40.59 41.41 41.30 42.32 43.42 44.36 45.21 45.38 45.26 46.17 47.16 47.99 49.89 50.88 50.78 52.41 52.48 52.56 53.14 53.28 54.02 54.30 54.30 55.10 56.06 57.01 58.80 59.37 59.51 61.04 62.95 63.97 64.76 65.35 65.10 65.44 65.30 65.83
31.25 31.17 33.17 34.65 31.76 25.56 24.19 25.62 37.22 37.32 39.48 40.45 40.49 41.68 41.62 42.41 44.36 45.03 46.12 47.23 47.17 45.79 47.22 48.89 49.36 49.01 49.77 51.18 52.16 53.18 53.42 54.34 54.75 55.13 55.73 55.95 56.67 57.09 57.79 58.74 59.62 60.46 61.60 63.38 63.58 63.71 64.30 64.87 65.45
33.72 31.44 31.84 24.07 23.01 29.38 29.42 27.74 40.33 39.03 39.56 40.97 41.76 42.93 43.33 43.33 44.53 45.99 48.04 48.51 48.54 48.21 47.47 46.87 48.47 48.92 48.76 49.35 51.58 52.68 53.72 53.73 54.23 55.15 55.71 55.83 56.13 57.17 58.08 59.06 59.88 60.61 60.96 60.84 60.89 61.45 63.07 63.55 64.12
MSLP
1009.00 1008.48 1008.55 1008.70 1010.02 1010.40 1010.19 1009.23 1008.29 1008.00 1007.14 1006.06 1005.87 1005.94 1005.92 1005.60 1005.82 1006.62 1006.03 1006.38 1006.66 1006.93 1007.34 1008.29 1008.71 1008.99 1009.24 1009.31 1009.65 1010.04 1010.35 1010.76 1010.94 1011.34 1011.75 1012.21 1012.62 1013.00 1013.30 1013.49 1013.68 1013.83 1014.09 1014.36 1014.64 1014.94 1015.10 1015.19 1015.26
1009.06 1008.61 1008.78 1009.64 1010.59 1010.70 1009.81 1008.51 1007.97 1007.74 1006.77 1005.98 1005.61 1005.60 1005.55 1005.55 1005.51 1005.93 1006.13 1006.73 1006.95 1007.31 1007.80 1007.99 1008.63 1008.84 1009.38 1009.68 1009.71 1010.03 1010.42 1010.87 1011.26 1011.59 1012.01 1012.44 1012.82 1013.09 1013.49 1013.69 1013.83 1013.97 1014.15 1014.41 1014.74 1014.94 1015.08 1015.31 1015.53
1008.99 1009.24 1010.03 1010.71 1011.08 1010.78 1009.34 1008.30 1007.47 1007.21 1005.88 1005.99 1005.62 1005.26 1005.36 1005.50 1005.19 1005.54 1005.58 1006.37 1007.07 1007.56 1008.21 1008.83 1008.97 1009.16 1009.34 1009.78 1009.89 1010.06 1010.36 1010.69 1011.30 1011.78 1012.20 1012.61 1013.02 1013.38 1013.53 1013.68 1013.96 1014.20 1014.42 1014.64 1014.76 1014.96 1015.24 1015.50 1015.69
1009.55 1010.26 1011.50 1011.31 1011.20 1010.13 1008.91 1008.14 1007.17 1006.74 1006.09 1005.88 1006.01 1005.56 1005.36 1005.22 1005.29 1005.36 1005.93 1006.44 1006.85 1007.62 1008.26 1008.84 1009.22 1009.32 1009.54 1009.86 1010.05 1010.21 1010.47 1010.71 1011.11 1011.67 1012.24 1012.68 1013.07 1013.32 1013.61 1013.85 1014.01 1014.36 1014.57 1014.73 1014.83 1015.05 1015.39 1015.59 1015.69
1010.14 1011.35 1012.15 1012.15 1011.13 1010.05 1008.83 1008.00 1007.60 1007.31 1006.80 1006.33 1006.02 1005.80 1005.38 1005.17 1005.27 1005.63 1006.16 1006.71 1007.12 1007.49 1008.02 1008.73 1009.31 1009.61 1009.74 1009.97 1010.35 1010.57 1010.77 1010.92 1011.14 1011.64 1012.07 1012.60 1013.00 1013.27 1013.48 1013.76 1014.03 1014.16 1014.36 1014.58 1014.80 1015.03 1015.29 1015.65 1015.75
1011.03 1012.14 1012.83 1012.40 1011.27 1009.64 1009.04 1008.22 1007.66 1007.59 1007.04 1006.66 1006.02 1006.41 1005.35 1005.06 1005.38 1005.81 1006.33 1006.88 1007.57 1007.60 1007.89 1008.56 1009.19 1009.59 1010.05 1010.16 1010.55 1010.84 1010.94 1011.19 1011.24 1011.53 1011.94 1012.33 1012.90 1013.12 1013.34 1013.63 1013.94 1014.14 1014.36 1014.44 1014.50 1014.77 1015.14 1015.53 1015.73
1011.32 1012.53 1012.69 1012.18 1011.42 1010.04 1008.96 1008.58 1008.08 1007.78 1007.37 1006.77 1006.49 1006.43 1005.93 1005.19 1005.49 1006.09 1006.12 1006.87 1007.59 1008.14 1008.36 1008.46 1008.95 1009.51 1009.85 1010.23 1010.54 1011.06 1011.22 1011.31 1011.36 1011.59 1011.94 1012.33 1012.57 1012.98 1013.27 1013.47 1013.83 1014.06 1014.26 1014.45 1014.62 1014.60 1014.77 1015.25 1015.55
1011.28 1012.48 1012.68 1012.20 1011.55 1009.92 1008.91 1008.66 1008.31 1008.07 1007.68 1006.97 1006.62 1006.54 1006.52 1005.77 1005.73 1006.32 1006.99 1007.30 1007.30 1007.90 1008.45 1008.83 1009.13 1009.44 1009.79 1010.22 1010.51 1011.08 1011.36 1011.60 1011.64 1011.48 1011.68 1012.30 1012.66 1012.87 1013.28 1013.57 1013.66 1013.90 1014.30 1014.52 1014.74 1014.78 1014.82 1014.92 1015.20
1011.06 1012.45 1012.48 1011.95 1011.33 1009.90 1009.29 1009.06 1008.49 1008.12 1007.79 1007.60 1006.99 1006.81 1005.97 1005.43 1006.16 1006.55 1007.36 1007.92 1008.13 1008.14 1007.96 1008.62 1009.22 1009.37 1009.85 1010.33 1010.43 1010.94 1011.56 1011.72 1012.02 1011.91 1011.80 1012.03 1012.52 1012.88 1013.12 1013.54 1013.82 1013.95 1014.19 1014.39 1014.70 1014.83 1014.90 1014.90 1014.95
1011.57 1012.23 1011.77 1011.31 1010.72 1010.16 1009.63 1009.14 1008.91 1008.85 1008.08 1007.39 1007.49 1006.51 1005.98 1005.92 1006.42 1006.53 1006.85 1007.53 1007.88 1008.12 1008.02 1008.19 1008.78 1009.26 1009.61 1010.00 1010.43 1010.76 1011.15 1011.68 1012.03 1012.28 1012.29 1012.17 1012.42 1012.70 1013.04 1013.38 1013.66 1014.00 1014.15 1014.26 1014.54 1014.79 1014.90 1014.87 1015.06
1011.39 1011.69 1011.27 1010.85 1010.60 1010.17 1009.55 1009.18 1008.70 1008.62 1008.06 1007.34 1007.30 1006.66 1006.35 1006.32 1006.93 1007.13 1006.64 1006.39 1006.49 1007.50 1007.84 1007.94 1008.34 1008.78 1009.35 1009.59 1010.14 1010.70 1010.89 1011.41 1011.94 1012.25 1012.39 1012.39 1012.56 1012.76 1012.95 1013.28 1013.55 1013.95 1014.23 1014.46 1014.60 1014.74 1014.80 1014.82 1014.88
1011.13 1010.88 1010.53 1010.33 1010.15 1010.01 1009.60 1009.02 1008.31 1007.92 1007.62 1007.19 1006.79 1006.52 1006.25 1006.57 1006.70 1006.79 1006.72 1006.50 1006.65 1007.02 1007.41 1007.70 1008.09 1008.49 1008.96 1009.10 1009.79 1010.33 1010.84 1011.03 1011.54 1011.99 1012.36 1012.40 1012.72 1012.88 1013.01 1013.15 1013.41 1013.79 1014.12 1014.39 1014.62 1014.79 1014.76 1014.65 1014.64
1011.08 1010.79 1010.39 1009.91 1009.90 1009.90 1009.32 1008.68 1008.15 1007.02 1007.29 1006.66 1006.33 1006.05 1006.11 1006.02 1006.10 1005.90 1006.25 1006.17 1006.41 1006.56 1006.96 1007.40 1007.79 1008.01 1008.45 1008.87 1009.15 1009.72 1010.15 1010.43 1011.14 1011.66 1012.07 1012.35 1012.45 1012.73 1012.99 1013.28 1013.52 1013.80 1014.08 1014.21 1014.39 1014.54 1014.63 1014.61 1014.60
1010.53 1010.57 1010.41 1010.13 1009.96 1009.61 1009.24 1008.15 1007.61 1007.07 1006.66 1006.56 1006.01 1005.70 1005.27 1005.25 1005.20 1005.41 1005.73 1006.03 1006.28 1006.34 1006.37 1006.87 1007.22 1007.69 1008.01 1008.37 1008.51 1008.87 1009.44 1009.83 1010.56 1011.14 1011.48 1011.99 1012.06 1012.42 1012.86 1013.20 1013.57 1013.80 1013.88 1014.05 1014.09 1014.18 1014.41 1014.54 1014.52
1010.58 1010.80 1010.52 1010.25 1009.58 1009.14 1008.84 1008.14 1007.23 1006.89 1006.66 1006.47 1006.05 1005.49 1005.17 1004.93 1004.99 1005.00 1004.98 1005.12 1005.37 1005.53 1005.70 1006.32 1006.69 1007.43 1007.68 1007.65 1008.02 1008.43 1008.96 1009.64 1010.69 1011.10 1011.40 1011.61 1011.85 1012.09 1012.48 1012.89 1013.27 1013.41 1013.65 1013.79 1013.94 1013.89 1013.97 1014.24 1014.47
1011.22 1011.49 1011.35 1010.43 1009.82 1008.81 1008.71 1007.41 1007.07 1007.01 1006.86 1006.59 1006.04 1005.58 1005.32 1005.19 1005.03 1004.78 1004.59 1004.64 1004.76 1005.03 1005.27 1005.56 1006.08 1006.74 1007.44 1007.59 1007.97 1008.22 1008.69 1009.11 1009.41 1010.78 1011.68 1011.78 1012.02 1011.94 1012.18 1012.42 1012.61 1012.87 1013.32 1013.67 1013.97 1014.25 1014.13 1014.00 1014.13
1012.16 1012.39 1012.05 1011.25 1009.96 1009.65 1009.24 1008.34 1007.61 1006.76 1007.06 1006.54 1006.51 1006.13 1005.80 1005.16 1004.84 1004.45 1004.71 1004.45 1004.14 1004.22 1004.59 1004.98 1005.42 1005.92 1006.30 1007.00 1007.71 1008.25 1008.52 1008.74 1009.00 1009.27 1010.53 1011.30 1011.93 1012.37 1012.33 1012.47 1011.86 1012.37 1012.81 1013.13 1013.43 1013.88 1014.25 1014.22 1014.04
1012.45 1012.33 1012.01 1011.57 1010.25 1009.75 1009.34 1008.49 1008.18 1007.65 1007.22 1006.64 1006.49 1006.24 1005.96 1005.37 1004.33 1003.66 1003.70 1003.85 1003.95 1003.84 1004.24 1004.61 1005.03 1005.45 1006.10 1006.82 1007.65 1008.15 1008.43 1008.65 1008.42 1008.61 1009.12 1009.96 1010.76 1011.59 1011.90 1012.25 1012.50 1012.54 1012.48 1012.89 1013.02 1013.50 1013.55 1014.03 1013.91
1012.16 1012.29 1012.07 1011.17 1009.99 1010.02 1009.25 1008.06 1007.99 1007.43 1007.18 1006.83 1006.24 1005.96 1005.71 1005.04 1003.69 1003.44 1003.33 1003.58 1003.80 1004.16 1004.16 1004.30 1004.71 1005.14 1005.63 1006.22 1007.07 1007.71 1008.16 1008.22 1008.74 1008.88 1008.26 1008.37 1009.21 1010.32 1010.82 1011.44 1012.13 1012.42 1012.43 1011.81 1012.49 1013.32 1013.25 1013.58 1013.72
1011.97 1012.11 1011.77 1011.01 1010.04 1009.98 1009.41 1007.94 1007.57 1007.57 1007.05 1006.41 1006.25 1005.90 1005.38 1004.78 1004.06 1003.48 1003.10 1003.28 1003.70 1003.35 1003.84 1004.09 1004.18 1004.55 1005.05 1005.66 1006.35 1006.96 1007.23 1007.53 1007.93 1008.44 1008.91 1009.31 1008.27 1009.08 1009.86 1010.67 1011.15 1011.79 1012.23 1011.69 1012.20 1012.40 1012.80 1013.28 1013.65
1011.33 1011.58 1011.30 1011.02 1010.23 1009.76 1009.55 1007.90 1007.66 1007.23 1006.86 1006.24 1005.65 1005.38 1005.26 1005.06 1004.44 1003.70 1003.63 1003.36 1003.41 1003.49 1003.38 1003.47 1003.59 1004.05 1004.55 1005.43 1006.21 1007.00 1007.24 1007.37 1007.97 1007.93 1008.02 1008.28 1008.29 1008.66 1009.04 1009.69 1010.00 1010.47 1011.42 1011.95 1012.16 1011.00 1012.32 1013.17 1013.55
1010.85 1010.43 1010.67 1010.76 1010.82 1010.74 1010.00 1008.13 1007.69 1006.97 1006.47 1006.10 1005.29 1005.13 1004.97 1004.75 1004.28 1003.88 1003.65 1003.72 1003.58 1003.29 1003.55 1003.64 1003.61 1004.01 1004.42 1005.10 1005.70 1006.39 1006.74 1007.18 1007.21 1006.98 1007.08 1007.50 1007.91 1009.07 1009.09 1008.71 1008.65 1009.65 1011.22 1011.66 1011.77 1009.82 1011.91 1012.50 1013.27
1010.26 1010.28 1010.78 1011.00 1011.22 1010.95 1010.71 1010.36 1006.47 1006.58 1006.12 1005.97 1005.60 1004.96 1004.51 1004.50 1004.34 1003.77 1003.37 1002.94 1003.03 1003.61 1003.64 1003.67 1003.99 1004.28 1004.45 1004.72 1005.07 1005.76 1006.60 1006.66 1006.86 1007.06 1007.39 1007.63 1008.05 1008.39 1008.95 1008.19 1008.84 1009.81 1010.89 1010.43 1010.94 1010.79 1012.33 1010.24 1011.97
1010.24 1010.73 1011.20 1011.48 1011.98 1011.34 1010.68 1010.30 1005.83 1006.16 1005.70 1005.16 1005.02 1004.72 1004.79 1004.50 1004.25 1003.83 1003.12 1002.71 1002.79 1003.05 1003.47 1003.96 1003.99 1004.09 1004.46 1004.75 1005.06 1005.21 1005.65 1006.30 1006.89 1007.20 1007.72 1007.81 1007.86 1008.08 1008.97 1009.13 1009.28 1009.37 1009.66 1009.84 1009.70 1010.29 1010.93 1010.05 1009.88
1010.95 1011.66 1012.48 1012.77 1012.86 1011.10 1010.14 1009.58 1007.27 1005.73 1005.48 1005.07 1004.89 1004.94 1004.90 1004.79 1004.20 1003.61 1003.33 1003.03 1002.56 1002.78 1003.05 1003.51 1004.01 1004.16 1004.31 1004.41 1004.79 1005.18 1005.66 1006.57 1007.05 1007.30 1007.37 1007.54 1007.69 1007.71 1007.71 1007.96 1008.29 1008.35 1008.21 1008.48 1009.17 1009.44 1009.33 1010.02 1010.31
1011.57 1012.48 1013.86 1013.19 1013.11 1011.90 1011.04 1009.15 1006.92 1005.93 1005.52 1005.21 1005.15 1005.35 1005.08 1004.75 1004.22 1003.64 1002.81 1002.37 1001.99 1001.95 1002.21 1002.64 1003.41 1003.84 1004.15 1004.26 1004.70 1005.15 1005.56 1006.06 1006.65 1007.02 1007.19 1007.30 1007.62 1007.51 1007.09 1007.62 1007.76 1008.06 1008.04 1008.28 1008.48 1008.62 1008.69 1009.21 1009.90
1012.49 1013.20 1013.77 1014.17 1013.81 1013.12 1010.92 1008.96 1007.19 1006.44 1005.78 1005.86 1005.86 1005.79 1005.47 1005.17 1004.51 1003.60 1002.93 1002.44 1001.92 1001.80 1002.08 1002.79 1003.25 1003.61 1004.03 1003.98 1004.31 1004.92 1005.44 1005.99 1006.38 1006.70 1006.85 1007.05 1007.30 1007.45 1007.65 1007.38 1007.51 1007.41 1007.47 1007.68 1007.96 1008.47 1009.25 1009.26 1009.45
1012.41 1013.36 1014.35 1014.90 1014.30 1012.54 1010.81 1009.63 1008.15 1007.12 1006.87 1006.59 1006.50 1006.37 1006.13 1005.20 1004.43 1003.83 1003.51 1002.89 1002.16 1002.00 1002.62 1002.99 1003.36 1003.46 1003.46 1003.72 1004.06 1004.55 1005.03 1005.47 1005.95 1006.48 1006.74 1006.85 1007.02 1007.31 1007.45 1007.51 1007.36 1007.39 1007.55 1007.79 1008.11 1008.60 1008.97 1009.47 1009.68
1013.24 1013.69 1014.44 1015.15 1014.82 1013.62 1012.07 1010.07 1008.91 1008.25 1008.02 1007.56 1006.89 1006.60 1006.24 1005.50 1004.68 1003.72 1003.34 1002.94 1002.38 1001.94 1002.49 1002.97 1003.27 1003.38 1003.68 1003.78 1003.92 1004.18 1004.61 1004.91 1005.49 1005.97 1006.29 1006.61 1006.86 1007.05 1007.16 1007.26 1007.38 1007.54 1007.77 1008.02 1008.20 1008.65 1008.92 1009.16 1009.37
1012.81 1013.26 1014.03 1014.95 1014.57 1014.07 1013.05 1010.29 1008.48 1008.15 1007.85 1007.71 1007.41 1006.81 1006.41 1005.88 1005.11 1004.18 1003.26 1002.81 1003.07 1002.71 1002.51 1002.66 1002.76 1003.13 1003.41 1003.78 1004.12 1004.21 1004.30 1004.60 1005.17 1005.51 1005.76 1006.07 1006.34 1006.54 1006.67 1006.89 1006.98 1007.11 1007.43 1007.80 1008.12 1008.40 1008.62 1008.87 1008.85
Wind_Speed
7 7 1 4 4 5 2 5 1 6 10 4 2 1 3 2 3 5 4 2 9 15 14 14 17 17 16 16 16 16 18 18 19 20 19 19 18 16 15 14 13 13 13 12 11 10 10 11 12
5 5 5 2 5 2 3 4 4 0 7 9 2 2 3 1 2 3 4 5 10 13 10 13 18 19 18 16 17 17 17 17 17 18 18 17 16 16 15 14 13 13 13 12 10 10 10 10 10
5 4 4 4 3 5 4 3 1 4 9 3 2 2 1 3 3 4 3 14 12 12 12 7 15 17 19 19 18 18 18 19 17 17 17 16 15 14 14 13 12 12 11 10 10 10 9 8 8
4 5 4 4 5 5 4 5 7 5 9 6 7 2 2 1 2 2 11 15 15 14 14 13 14 16 18 19 19 19 19 20 19 18 17 16 15 13 12 11 11 10 10 9 9 8 7 7 7
4 3 1 1 4 4 4 4 5 5 7 5 4 4 1 2 3 10 12 12 13 13 13 12 14 14 17 18 18 18 19 19 20 18 18 16 14 13 12 12 11 11 11 10 9 9 8 6 5
4 3 2 4 5 4 3 2 7 2 5 9 7 8 3 1 6 8 10 10 9 12 13 14 16 14 13 15 16 16 17 18 19 18 17 16 14 14 13 12 12 11 10 10 11 9 8 6 4
6 4 5 4 2 7 2 1 1 3 4 6 6 3 7 5 1 7 12 11 9 9 9 12 14 13 15 14 15 14 14 16 17 17 16 15 16 14 13 13 12 11 11 10 9 9 9 6 4
5 4 5 4 4 9 3 1 2 4 3 5 1 3 7 7 6 7 6 6 12 10 8 12 12 11 9 10 15 14 14 13 14 17 17 15 14 13 12 11 12 12 10 9 8 8 8 6 5
4 3 4 5 5 7 3 1 2 4 7 1 6 4 6 4 7 8 7 4 5 9 12 13 12 12 9 7 11 13 15 14 13 14 16 13 7 8 10 10 11 11 10 9 8 7 6 6 5
4 4 7 5 4 8 4 2 2 4 10 4 6 8 4 3 4 11 12 10 9 13 13 12 14 12 11 8 9 8 9 6 6 5 7 6 6 6 7 9 11 10 9 9 8 7 6 4 2
3 5 4 4 6 7 5 4 5 5 11 7 9 9 1 2 5 6 10 15 18 11 12 14 15 12 11 9 7 5 4 5 4 5 5 3 3 4 4 3 3 3 7 2 3 3 2 4 2
2 6 6 4 5 4 9 4 8 10 11 9 10 8 12 8 10 11 11 11 13 16 15 14 14 13 10 7 8 7 6 5 6 8 10 4 3 3 4 4 4 4 3 4 3 2 3 4 4
3 3 3 7 6 7 9 11 12 16 9 13 11 14 12 10 12 8 8 5 8 14 15 17 14 14 13 10 10 9 8 7 9 10 10 6 5 5 3 3 3 3 3 3 4 3 3 3 3
4 3 4 4 6 5 6 11 4 2 7 11 12 13 11 11 14 8 6 8 10 11 15 16 16 14 15 13 13 11 9 10 9 10 10 9 6 5 4 4 3 3 4 3 4 4 3 3 3
1 3 6 4 4 6 7 9 7 5 7 9 11 10 7 11 6 14 14 12 14 13 14 17 17 14 16 17 13 10 10 9 9 9 10 9 7 6 6 4 4 5 4 5 3 4 3 2 2
3 5 3 6 4 8 3 15 11 4 7 10 11 9 9 6 12 9 11 11 13 10 15 15 14 16 14 14 11 8 9 8 9 6 3 6 7 6 6 6 6 4 4 3 2 2 2 3 3
6 1 1 8 4 5 4 7 7 13 6 10 9 10 10 15 9 12 10 12 10 12 13 14 15 17 19 14 9 8 7 8 7 8 5 5 4 5 5 6 5 5 5 5 4 3 2 2 3
4 3 2 5 7 5 10 15 10 12 8 11 9 9 11 14 19 13 14 11 8 9 10 12 12 13 13 8 5 5 6 6 7 9 9 10 7 8 6 5 4 5 4 3 2 4 3 3 3
2 2 5 8 15 3 12 17 11 10 7 11 14 8 9 12 17 10 8 8 8 4 7 10 12 10 10 8 10 7 10 9 6 5 10 15 12 11 10 7 5 5 7 7 4 3 3 2 3
5 5 8 7 10 5 10 17 9 5 8 8 9 12 10 8 10 10 7 7 10 13 10 8 11 10 10 8 6 3 8 6 6 5 5 7 7 10 9 8 5 6 5 2 6 6 3 1 3
5 5 5 7 6 3 5 13 8 5 5 8 9 8 7 9 11 9 7 7 4 9 11 11 11 10 8 7 6 3 4 4 2 3 4 5 5 5 8 10 7 5 5 6 6 6 5 2 1
5 5 5 5 3 6 5 18 12 7 9 8 12 8 9 9 7 7 7 6 7 8 4 5 6 8 7 9 8 9 5 4 5 4 3 3 4 5 9 8 4 2 4 7 7 6 3 6 2
8 2 4 4 5 3 4 4 11 4 6 7 10 12 10 8 8 10 10 10 9 6 8 6 6 7 7 8 9 8 6 4 3 2 5 3 3 3 8 6 10 15 10 8 7 5 9 6 5
1 1 3 2 2 8 11 10 20 16 8 5 5 6 8 9 8 11 12 9 7 5 7 7 9 7 7 7 7 7 8 7 5 4 4 5 4 5 9 9 8 9 10 9 7 5 9 7 7
4 5 6 5 2 11 4 6 18 12 9 7 8 6 8 8 9 9 10 11 10 11 11 8 8 8 8 8 7 6 6 7 7 5 4 5 3 3 6 6 7 6 8 7 7 7 6 5 6
2 5 5 10 9 15 6 7 9 5 5 3 3 5 4 8 7 9 9 11 14 14 15 14 11 8 8 8 8 7 7 4 4 5 4 4 4 3 4 5 4 5 4 4 3 2 5 5 5
1 2 3 1 4 5 6 7 9 4 6 7 7 8 5 8 8 9 7 3 1 6 10 7 7 7 7 8 7 7 6 6 6 6 5 4 4 3 4 4 5 3 3 2 4 3 4 3 6
3 4 1 1 6 6 4 4 6 7 10 11 13 8 10 5 6 6 7 7 4 6 4 2 3 9 10 8 7 8 8 7 6 5 6 6 4 3 4 4 4 3 3 3 2 1 2 4 4
1 1 3 2 4 4 4 6 3 4 5 9 9 9 10 8 5 2 4 6 7 6 1 3 4 2 4 4 5 7 8 7 7 6 5 5 5 5 6 5 5 4 4 4 5 4 4 6 7
5 5 6 4 4 2 4 7 4 4 7 5 11 12 9 8 9 7 4 2 3 3 2 3 4 6 6 4 4 7 4 5 6 6 7 7 7 6 6 6 6 6 6 6 5 4 5 6 7
Wind_Direction
327 316 57 36 49 64 289 254 177 5 337 257 288 298 157 148 173 221 328 131 135 144 150 154 152 147 145 138 130 124 124 126 127 130 132 138 138 142 144 143 141 141 141 138 135 131 125 125 128
329 333 42 72 93 76 255 254 154 175 257 305 218 251 40 21 152 123 105 141 149 142 153 152 154 146 145 144 137 133 130 128 127 131 136 139 143 145 146 146 145 146 144 143 141 138 132 130 129
345 33 69 81 113 180 212 253 221 260 307 1 304 58 59 302 312 192 134 142 135 137 153 159 155 149 147 149 145 142 141 138 138 140 142 144 146 147 150 147 143 144 147 149 146 138 128 121 120
22 10 34 96 220 251 209 319 342 10 341 44 360 69 327 195 251 26 138 141 137 143 158 168 162 154 151 152 150 150 149 146 146 148 148 148 148 149 146 139 141 150 155 155 144 130 122 128 131
43 54 75 203 250 261 281 323 342 29 326 329 27 281 154 354 45 128 138 146 146 145 157 160 163 162 156 153 155 155 154 153 151 152 151 150 150 150 147 150 155 161 165 158 152 140 133 138 142
62 94 106 217 234 245 303 359 332 355 326 328 28 330 269 127 147 153 140 142 150 149 152 165 169 164 163 155 156 159 159 159 156 153 153 151 155 158 158 160 165 171 170 169 160 150 149 155 170
127 104 205 199 239 291 168 153 39 351 359 315 329 232 289 294 98 149 144 133 134 149 159 166 172 169 165 161 158 164 166 167 160 156 156 160 163 167 168 167 173 179 176 174 165 161 160 175 197
108 112 146 211 203 263 248 77 20 330 287 314 245 66 293 282 84 111 106 126 138 147 156 173 179 173 161 166 164 168 172 174 171 163 161 167 172 173 175 176 181 183 180 179 177 175 171 184 221
108 81 186 205 189 246 269 358 335 286 270 310 303 293 245 274 98 107 106 96 131 162 164 176 184 180 169 163 171 171 179 179 185 178 173 168 172 179 181 183 194 191 186 187 186 188 190 204 221
122 157 212 199 211 277 285 306 300 297 293 263 286 287 3 35 115 168 165 172 171 183 182 177 182 177 175 173 176 172 176 180 185 194 194 177 176 177 176 188 198 201 195 195 194 199 211 225 235
156 194 218 238 230 251 272 280 225 248 278 254 274 286 228 252 258 245 202 185 189 175 181 183 186 174 176 172 170 176 173 174 188 197 197 187 175 184 184 174 191 188 206 197 209 219 218 231 240
168 230 195 248 224 261 267 249 268 226 242 245 246 250 287 219 222 221 216 191 177 178 185 182 184 180 177 167 175 177 174 173 190 210 212 175 182 196 197 193 187 183 186 193 206 213 235 246 247
200 253 244 257 281 241 263 259 248 265 254 264 258 266 245 238 223 219 238 231 176 178 184 188 182 184 180 178 174 181 183 186 202 210 214 200 189 197 178 205 188 196 181 193 204 210 227 248 260
195 230 265 279 257 239 221 267 193 212 228 260 261 254 261 236 215 219 192 204 196 190 190 182 187 187 181 189 187 184 184 190 193 208 212 203 198 187 192 178 209 221 192 208 205 201 218 247 247
297 310 340 240 247 232 184 264 238 243 253 257 278 273 268 257 184 214 213 198 195 200 178 189 187 187 190 194 189 184 189 183 210 219 215 204 199 192 181 194 210 217 211 209 218 207 208 247 268
358 55 39 291 327 277 144 273 288 278 286 269 268 280 293 253 256 220 221 219 196 180 184 183 185 190 195 200 195 184 184 194 173 203 232 225 227 198 190 202 212 193 190 209 209 255 240 230 214
10 227 60 315 237 266 195 289 298 321 296 272 259 269 276 281 249 247 227 221 200 194 190 187 188 189 194 195 182 184 179 178 190 155 166 198 230 245 241 230 204 185 198 195 191 210 227 258 257
279 329 264 236 280 210 267 268 267 271 285 278 264 248 257 260 259 236 225 220 231 197 183 193 189 193 190 183 155 152 161 189 197 191 183 175 186 195 202 248 259 208 198 200 158 195 183 232 257
255 258 256 266 279 243 271 275 265 264 281 280 285 277 262 255 261 270 231 197 203 196 177 184 180 184 170 171 174 170 185 180 201 228 206 183 182 194 194 215 210 218 243 176 165 209 197 244 223
227 256 270 278 261 165 271 275 269 242 246 242 267 292 277 274 281 277 238 190 198 191 199 183 191 170 179 186 186 187 175 185 178 179 202 202 173 185 184 193 199 201 225 176 183 168 152 201 207
239 200 246 234 290 280 269 280 297 257 245 282 270 240 279 278 283 281 271 249 208 197 189 188 179 172 168 145 118 75 75 47 261 211 203 200 191 182 176 179 188 181 199 217 209 157 142 152 272
266 207 229 272 322 262 143 287 273 253 238 240 264 286 274 289 296 284 281 246 238 226 182 182 164 162 156 154 149 161 173 157 203 182 189 229 164 226 212 208 234 220 277 224 235 124 150 155 206
236 329 290 272 263 297 188 263 269 241 252 258 258 259 263 263 272 277 264 244 215 200 208 183 166 167 167 169 171 171 174 155 141 143 142 179 198 234 274 221 193 211 221 270 207 135 218 138 163
2 16 302 86 145 260 247 215 274 266 229 244 246 269 307 305 282 254 255 264 237 186 180 190 176 178 168 163 169 172 157 154 158 164 178 197 183 188 203 207 203 203 201 203 189 181 234 232 226
70 45 324 312 261 270 6 234 248 310 285 248 264 290 302 291 298 291 249 236 222 193 191 184 188 176 173 157 156 162 160 155 164 167 175 171 177 191 206 196 203 207 206 201 212 211 222 223 238
172 159 181 260 273 291 326 246 249 254 281 85 32 296 340 336 314 301 283 231 220 206 188 180 178 172 174 161 165 165 163 162 173 175 173 175 193 216 186 202 207 212 196 209 207 226 211 203 227
97 182 185 267 220 263 233 292 310 353 31 8 333 339 343 323 343 342 338 41 87 181 181 182 157 171 185 179 156 165 164 170 185 185 174 171 185 202 215 177 180 188 193 206 165 173 236 224 223
168 147 356 280 276 248 268 265 244 342 360 343 334 324 304 308 28 19 2 2 63 101 54 115 209 195 190 174 171 176 177 180 180 167 192 192 183 193 177 188 169 156 156 162 147 197 239 243 262
163 168 147 217 243 298 318 292 319 317 274 319 329 329 310 294 308 27 28 15 11 53 130 168 237 306 299 247 189 181 193 186 174 184 190 193 181 190 189 183 174 167 176 180 167 192 218 219 239
182 208 143 136 276 272 264 266 248 279 305 344 335 334 333 312 293 303 334 103 335 17 43 319 263 226 226 242 230 227 220 172 182 194 191 187 198 197 196 186 179 174 179 171 184 208 208 216 231